Flag for Switzerland Weather past 2 weeks in Delémont, Jura, Switzerland

Now
62 °F

Cool.


Feels Like: 62 °F
Forecast: 47 / 60 °F
Wind: 2 mph from West

Location: Grenchen

Current Time: Sep 21, 2014 at 10:43:40 AM

Latest Report: Sep 21, 2014 at 10:00 AM


Visibility: N/A

Pressure: 30.06 "Hg

Humidity: 86%

Dew point: 58 °F

Location of DelémontLocation

Historic Weather in Delémont — Graph

°F

Delémont temperature yesterday

Maximum temperature yesterday: 73 °F (at 3:00 PM)
Minimum temperature yesterday: 60 °F (at 11:00 PM)
Average temperature yesterday: 64 °F

Past Weeks' High & Low Weather Summary

 TemperatureHumidityPressure
High79 °F (Sep 7, 5:00 PM)100% (Sep 6, 9:00 AM)30.14 "Hg (Sep 6, 9:00 AM)
Low49 °F (Sep 12, 7:00 AM)42% (Sep 16, 5:00 PM)29.80 "Hg (Sep 17, 4:00 PM)
Average63 °F81%29.99 "Hg
* Reported Sep 6 9:00 AM — Sep 21 9:00 AM, Delémont, Weather by CustomWeather, © 2014

Note: Actual official high and low records may vary slightly from our data, if they occured in-between our weather recording intervals... More about our weather records

Advertising

Delémont weather history for previous 24 hours

 ConditionsComfort  
Time TempWeatherWind HumidityBarometerVisibility
9:00 AM
Sep 21
60 °FCool.2 mph97%30.07 "HgN/A
8:00 AM58 °FCool.2 mph99%30.08 "HgN/A
7:00 AM58 °FCool.1 mph100%30.08 "HgN/A
6:00 AM58 °FCool.3 mph100%30.07 "HgN/A
5:00 AM58 °FCool.6 mph100%30.05 "HgN/A
4:00 AM57 °FCool.3 mph100%30.07 "HgN/A
3:00 AM56 °FCool.1 mph100%30.08 "HgN/A
2:00 AM57 °FCool.No wind99%30.07 "HgN/A
1:00 AM58 °FCool.1 mph98%30.08 "HgN/A
12:00 AM59 °FCool.1 mph99%30.07 "HgN/A
11:00 PM
Sep 20
60 °FCool.1 mph98%30.07 "HgN/A
10:00 PM61 °FCool.1 mph96%30.06 "HgN/A
9:00 PM62 °FCool.1 mph93%30.05 "HgN/A
8:00 PM66 °FMild.1 mph93%30.02 "HgN/A
7:00 PM68 °FMild.2 mph88%30.00 "HgN/A
3:00 PM73 °FMild.9 mph59%29.99 "HgN/A
2:00 PM72 °FMild.9 mph67%30.00 "HgN/A
1:00 PM70 °FMild.8 mph71%30.02 "HgN/A
12:00 PM68 °FMild.5 mph80%30.03 "HgN/A
11:00 AM64 °FMild.3 mph92%30.04 "HgN/A
10:00 AM63 °FMild.3 mph96%30.03 "HgN/A
Weather by CustomWeather, © 2014

See weather overviewHow to use our weather pages